Location: *
(58.4167°N, 22.5000°E)
Time: 04:16:28
(UTC+00:00)

HJ-1C - Pass Details

Date: 22 September 2019
Orbit: 435 x 449 km, 97.2° (Epoch: 18 October)

Event Time Altitude Azimuth Distance (km) Brightness Sun altitude
Rises 17:24:09 0° 168° (SSE) 2,446 6.9 -7.8°
Reaches altitude 10° 17:26:11 10° 171° (S) 1,581 5.9 -8.0°
Maximum altitude 17:29:34 73° 256° (WSW) 479 3.7 -8.5°
Drops below altitude 10° 17:32:59 10° 342° (NNW) 1,597 6.7 -8.9°
Sets 17:35:02 0° 345° (NNW) 2,475 7.6 -9.2°
